FW1757 Weather Reports


time (UTC)temp
F
wind
direction
speed
knots
gust
knots
rain 1hr
in
rain 24hr
in
rain mn
in
humidity
%
barometer
mb
20260510183038 61 286 0.0 0.0 0.00 0.00 0.00 67 1014.9
20260510182517 61 298 0.0 0.0 0.00 0.00 0.00 66 1015.0
20260510182021 61 294 0.0 0.0 0.00 0.00 0.00 66 1014.9
20260510181525 61 292 0.0 0.0 0.00 0.00 0.00 66 1014.9
20260510181115 60 281 0.0 0.0 0.00 0.00 0.00 63 1015.1
20260510180514 60 250 0.0 0.0 0.00 0.00 0.00 65 1015.0
20260510180013 60 315 0.0 0.0 0.00 0.00 0.00 65 1014.9
20260510175512 60 329 0.0 0.0 0.00 0.00 0.00 64 1014.9
20260510175012 59 309 0.0 0.0 0.00 0.00 0.00 64 1014.8
20260510174511 59 271 0.0 0.0 0.00 0.00 0.00 64 1014.9
20260510174014 59 281 0.0 0.0 0.00 0.00 0.00 61 1014.9
20260510173510 59 294 0.0 0.0 0.00 0.00 0.00 62 1014.9
20260510173009 59 288 0.0 0.0 0.00 0.00 0.00 63 1014.9
20260510172508 59 294 0.0 0.0 0.00 0.00 0.00 63 1015.0
20260510172012 59 292 0.0 0.0 0.00 0.00 0.00 62 1014.9
20260510171509 59 276 0.0 0.0 0.00 0.00 0.00 60 1015.0
20260510171006 59 287 0.0 0.0 0.00 0.00 0.00 60 1014.8
20260510170506 58 300 0.0 0.0 0.00 0.00 0.00 59 1014.8
20260510170005 58 275 0.0 0.0 0.00 0.00 0.00 60 1014.8
20260510165504 58 258 0.0 0.0 0.00 0.00 0.00 58 1015.0
20260510165004 58 268 0.0 0.0 0.00 0.00 0.00 55 1014.9
20260510164509 58 273 0.0 0.0 0.00 0.00 0.00 57 1014.8
20260510164002 58 256 0.0 0.0 0.00 0.00 0.00 55 1015.1
20260510163501 58 263 0.0 0.0 0.00 0.00 0.00 55 1015.0
20260510163003 58 279 0.0 0.0 0.00 0.00 0.00 55 1014.9
20260510162559 57 298 0.0 0.0 0.00 0.00 0.00 52 1014.9
20260510162058 57 305 0.0 0.0 0.00 0.00 0.00 46 1014.9
20260510161558 57 282 0.0 0.0 0.00 0.00 0.00 49 1014.9
20260510161059 57 288 0.0 0.0 0.00 0.00 0.00 48 1015.1
20260510160557 57 285 0.0 0.0 0.00 0.00 0.00 47 1015.0
20260510160057 56 251 0.0 0.0 0.00 0.00 0.00 45 1015.0
20260510155559 56 272 0.0 0.0 0.00 0.00 0.00 44 1014.8
20260510155055 56 297 0.0 0.0 0.00 0.00 0.00 42 1014.7
20260510154554 56 259 0.0 0.0 0.00 0.00 0.00 44 1014.6
20260510154154 56 288 0.0 0.0 0.00 0.00 0.00 43 1014.7
20260510153553 56 273 0.0 0.0 0.00 0.00 0.00 42 1014.6
20260510153053 56 250 0.0 0.0 0.00 0.00 0.00 42 1014.7
20260510152556 55 250 0.0 0.0 0.00 0.00 0.00 45 1014.6
20260510152052 55 251 0.0 0.0 0.00 0.00 0.00 45 1014.6
20260510151553 55 271 0.0 0.0 0.00 0.00 0.00 44 1014.6
20260510151052 55 284 0.0 0.0 0.00 0.00 0.00 46 1014.6
20260510150552 55 272 0.0 0.0 0.00 0.00 0.00 47 1014.5
20260510150053 55 252 0.0 0.0 0.00 0.00 0.00 48 1014.7
20260510145550 55 251 0.0 0.0 0.00 0.00 0.00 48 1014.9
20260510145049 55 255 0.0 0.0 0.00 0.00 0.00 50 1014.7
20260510144551 55 225 0.0 0.0 0.00 0.00 0.00 50 1014.5
20260510144049 55 268 0.0 0.0 0.00 0.00 0.00 52 1014.3
20260510143548 54 223 0.0 0.0 0.00 0.00 0.00 50 1014.5
20260510143047 54 223 0.0 0.0 0.00 0.00 0.00 54 1014.4
20260510142549 54 223 0.0 0.0 0.00 0.00 0.00 54 1014.4
20260510142050 54 245 0.0 0.0 0.00 0.00 0.00 54 1014.2
20260510141556 54 245 0.0 0.0 0.00 0.00 0.00 54 1014.3
20260510141047 54 245 0.0 0.0 0.00 0.00 0.00 52 1014.3
20260510140547 53 245 0.0 0.0 0.00 0.00 0.00 56 1014.1
20260510140050 53 244 0.0 0.0 0.00 0.00 0.00 56 1014.2
20260510135546 53 244 0.0 0.0 0.00 0.00 0.00 56 1014.2
20260510135046 53 244 0.0 0.0 0.00 0.00 0.00 56 1014.4
20260510134551 53 244 0.0 0.0 0.00 0.00 0.00 55 1014.4
20260510134047 53 232 0.0 0.0 0.00 0.00 0.00 57 1014.4
20260510133545 53 223 0.0 0.0 0.00 0.00 0.00 57 1014.4
20260510133100 53 223 0.0 0.0 0.00 0.00 0.00 59 1014.4
20260510132544 52 223 0.0 0.0 0.00 0.00 0.00 60 1014.2
20260510132044 52 223 0.0 0.0 0.00 0.00 0.00 60 1014.3
20260510131550 52 217 0.0 0.0 0.00 0.00 0.00 61 1014.3
20260510131043 52 221 0.0 0.0 0.00 0.00 0.00 62 1014.3
20260510130543 52 221 0.0 0.0 0.00 0.00 0.00 64 1014.3
20260510130043 52 221 0.0 0.0 0.00 0.00 0.00 64 1014.3
20260510125542 52 221 0.0 0.0 0.00 0.00 0.00 65 1014.3
20260510125042 52 221 0.0 0.0 0.00 0.00 0.00 65 1014.2
20260510124543 52 261 0.0 0.0 0.00 0.00 0.00 66 1014.3
20260510124042 52 261 0.0 0.0 0.00 0.00 0.00 66 1014.3
20260510123542 52 264 0.0 0.0 0.00 0.00 0.00 66 1014.3
20260510123056 52 284 0.0 0.0 0.00 0.00 0.00 67 1014.4
20260510122541 52 284 0.0 0.0 0.00 0.00 0.00 66 1014.6
20260510122041 52 215 0.0 0.0 0.00 0.00 0.00 67 1014.5
20260510121541 52 214 0.0 0.0 0.00 0.00 0.00 67 1014.4
20260510121041 52 214 0.0 0.0 0.00 0.00 0.00 67 1014.3
20260510120540 51 214 0.0 0.0 0.00 0.00 0.00 67 1014.3
20260510120040 51 226 0.0 0.0 0.00 0.00 0.00 67 1014.3
20260510115540 51 226 0.0 0.0 0.00 0.00 0.00 67 1014.2
20260510115040 51 227 0.0 0.0 0.00 0.00 0.00 67 1014.3
20260510114540 51 218 0.0 0.0 0.00 0.00 0.00 67 1014.3
20260510114039 51 213 0.0 0.0 0.00 0.00 0.00 68 1014.3
20260510113539 51 171 0.0 0.0 0.00 0.00 0.00 68 1014.3
20260510113043 51 190 0.0 0.0 0.00 0.00 0.00 68 1014.2
20260510112538 51 189 0.0 0.0 0.00 0.00 0.00 68 1014.1
20260510112038 51 189 0.0 0.0 0.00 0.00 0.00 68 1014.0
20260510111537 51 189 0.0 0.0 0.00 0.00 0.00 68 1014.1
20260510111037 52 189 0.0 0.0 0.00 0.00 0.00 68 1013.9
20260510110535 52 189 0.0 0.0 0.00 0.00 0.00 68 1013.9
20260510110035 52 189 0.0 0.0 0.00 0.00 0.00 68 1013.9
20260510105534 52 189 0.0 0.0 0.00 0.00 0.00 68 1013.9
20260510105034 52 189 0.0 0.0 0.00 0.00 0.00 68 1014.1
20260510104533 52 189 0.0 0.0 0.00 0.00 0.00 68 1014.2
20260510104033 52 189 0.0 0.0 0.00 0.00 0.00 68 1014.2
20260510103533 52 190 0.0 0.0 0.00 0.00 0.00 68 1014.1
20260510103034 52 207 0.0 0.0 0.00 0.00 0.00 68 1014.2
20260510102533 52 207 0.0 0.0 0.00 0.00 0.00 68 1014.1
20260510102032 52 207 0.0 0.0 0.00 0.00 0.00 68 1014.2
20260510101532 52 207 0.0 0.0 0.00 0.00 0.00 68 1014.1
20260510101031 52 207 0.0 0.0 0.00 0.00 0.00 67 1014.0
20260510100531 53 202 0.0 0.0 0.00 0.00 0.00 67 1014.1
20260510100030 53 167 0.0 0.0 0.00 0.00 0.00 67 1014.0
20260510095529 54 167 0.0 0.0 0.00 0.00 0.00 66 1014.0
20260510095027 54 167 0.0 0.0 0.00 0.00 0.00 66 1014.0
20260510094526 55 167 0.0 0.0 0.00 0.00 0.00 65 1014.0
20260510094026 55 167 0.0 0.0 0.00 0.00 0.00 65 1013.9
20260510093524 55 167 0.0 0.0 0.00 0.00 0.00 64 1013.9
20260510093026 56 167 0.0 0.0 0.00 0.00 0.00 64 1014.0
20260510092526 56 167 0.0 0.0 0.00 0.00 0.00 63 1013.9
20260510092027 56 167 0.0 0.0 0.00 0.00 0.00 63 1014.0
20260510091524 56 167 0.0 0.0 0.00 0.00 0.00 62 1014.1
20260510091027 56 167 0.0 0.0 0.00 0.00 0.00 62 1014.1
20260510090523 55 167 0.0 0.0 0.00 0.00 0.00 62 1014.1
20260510090022 55 94 0.0 0.0 0.00 0.00 0.00 62 1014.1
20260510085521 55 94 0.0 0.0 0.00 0.00 0.00 63 1014.1
20260510085022 55 94 0.0 0.0 0.00 0.00 0.00 63 1014.1
20260510084520 55 94 0.0 0.0 0.00 0.00 0.00 63 1014.2
20260510084021 55 94 0.0 0.0 0.00 0.00 0.00 64 1014.2
20260510083522 55 94 0.0 0.0 0.00 0.00 0.00 64 1014.2
20260510083019 55 94 0.0 0.0 0.00 0.00 0.00 65 1014.3
20260510082519 55 91 0.0 0.0 0.00 0.00 0.00 63 1014.3
20260510082019 55 91 0.0 0.0 0.00 0.00 0.00 64 1014.3
20260510081519 55 91 0.0 0.0 0.00 0.00 0.00 63 1014.4
20260510081020 55 91 0.0 0.0 0.00 0.00 0.00 63 1014.4
20260510080517 55 91 0.0 0.0 0.00 0.00 0.00 64 1014.4
20260510080018 55 91 0.0 0.0 0.00 0.00 0.00 65 1014.4
20260510075517 55 91 0.0 0.0 0.00 0.00 0.00 65 1014.4
20260510075019 55 91 0.0 0.0 0.00 0.00 0.00 65 1014.4
20260510074520 55 91 0.0 0.0 0.00 0.00 0.00 65 1014.5
20260510074019 55 91 0.0 0.0 0.00 0.00 0.00 65 1014.4
20260510073516 55 91 0.0 0.0 0.00 0.00 0.00 64 1014.4
20260510073016 55 91 0.0 0.0 0.00 0.00 0.00 63 1014.5
20260510072516 55 91 0.0 0.0 0.00 0.00 0.00 63 1014.4
20260510072016 55 91 0.0 0.0 0.00 0.00 0.00 63 1014.5
20260510071515 55 91 0.0 0.0 0.00 0.00 0.00 62 1014.4
20260510071014 55 91 0.0 0.0 0.00 0.00 0.00 62 1014.5
20260510070514 55 91 0.0 0.0 0.00 0.00 0.00 61 1014.5
20260510070013 55 91 0.0 0.0 0.00 0.00 0.00 62 1014.4
20260510065512 55 91 0.0 0.0 0.00 0.00 0.00 61 1014.5
20260510065012 55 91 0.0 0.0 0.00 0.00 0.00 62 1014.3
20260510064511 55 91 0.0 0.0 0.00 0.00 0.00 61 1014.3
20260510064011 56 91 0.0 0.0 0.00 0.00 0.00 61 1014.4
20260510063511 56 91 0.0 0.0 0.00 0.00 0.00 61 1014.4
20260510063011 56 91 0.0 0.0 0.00 0.00 0.00 60 1014.3
20260510062511 56 91 0.0 0.0 0.00 0.00 0.00 60 1014.2
20260510062010 57 91 0.0 0.0 0.00 0.00 0.00 59 1014.2
20260510061511 57 91 0.0 0.0 0.00 0.00 0.00 58 1014.2
20260510061010 57 91 0.0 0.0 0.00 0.00 0.00 58 1014.0
20260510060510 58 91 0.0 0.0 0.00 0.00 0.00 57 1014.2
20260510060018 58 91 0.0 0.0 0.00 0.00 0.00 56 1014.0
20260510055509 58 90 0.0 0.0 0.00 0.00 0.00 55 1014.1
20260510055009 58 90 0.0 0.0 0.00 0.00 0.00 55 1014.0
20260510054511 59 90 0.0 0.0 0.00 0.00 0.00 55 1013.9
20260510054010 59 90 0.0 0.0 0.00 0.00 0.00 54 1013.9
20260510053511 60 90 0.0 0.0 0.00 0.00 0.00 53 1013.9
20260510053013 60 90 0.0 0.0 0.00 0.00 0.00 52 1013.8
20260510052508 60 90 0.0 0.0 0.00 0.00 0.00 52 1013.9
20260510052008 61 90 0.0 0.0 0.00 0.00 0.00 50 1013.8
20260510051508 61 90 0.0 0.0 0.00 0.00 0.00 49 1013.7
20260510051009 62 90 0.0 0.0 0.00 0.00 0.00 49 1013.9
20260510050509 62 90 0.0 0.0 0.00 0.00 0.00 48 1013.9
20260510050011 63 90 0.0 0.0 0.00 0.00 0.00 47 1013.9
20260510045509 63 90 0.0 0.0 0.00 0.00 0.00 46 1013.8
20260510045008 64 90 0.0 0.0 0.00 0.00 0.00 45 1013.8
20260510044508 65 90 0.0 0.0 0.00 0.00 0.00 44 1013.7
20260510044007 65 90 0.0 0.0 0.00 0.00 0.00 42 1013.7
20260510043507 66 90 0.0 0.0 0.00 0.00 0.00 40 1013.7
20260510043007 67 90 0.0 0.0 0.00 0.00 0.00 40 1013.7
20260510042508 68 90 0.0 0.0 0.00 0.00 0.00 38 1013.7
20260510042006 69 90 0.0 0.0 0.00 0.00 0.00 38 1013.7
20260510041506 69 90 0.0 0.0 0.00 0.00 0.00 35 1013.6
20260510041006 69 91 0.0 0.0 0.00 0.00 0.00 34 1013.6
20260510040506 69 112 0.0 0.0 0.00 0.00 0.00 34 1013.5
20260510040006 70 128 0.0 0.0 0.00 0.00 0.00 33 1013.5
20260510035505 70 128 0.0 0.0 0.00 0.00 0.00 32 1013.4
20260510035006 70 128 0.0 0.0 0.00 0.00 0.00 31 1013.3
20260510034505 70 128 0.0 0.0 0.00 0.00 0.00 33 1013.3
20260510034005 70 128 0.0 0.0 0.00 0.00 0.00 30 1013.2
20260510033504 70 128 0.0 0.0 0.00 0.00 0.00 30 1013.3
20260510033005 71 128 0.0 0.0 0.00 0.00 0.00 29 1013.3
20260510032504 71 117 0.0 0.0 0.00 0.00 0.00 29 1013.2
20260510032005 71 140 0.0 0.0 0.00 0.00 0.00 29 1013.3
20260510031511 71 140 0.0 0.0 0.00 0.00 0.00 30 1013.3
20260510031004 71 140 0.0 0.0 0.00 0.00 0.00 29 1013.3
20260510030507 71 140 0.0 0.0 0.00 0.00 0.00 28 1013.2
20260510030009 71 145 0.0 0.0 0.00 0.00 0.00 29 1013.3
20260510025505 71 111 0.0 0.0 0.00 0.00 0.00 31 1013.2
20260510025004 71 88 0.0 0.0 0.00 0.00 0.00 33 1013.1
20260510024503 71 78 0.0 0.0 0.00 0.00 0.00 33 1013.1
20260510024004 72 47 0.0 0.0 0.00 0.00 0.00 35 1013.1
20260510023502 72 47 0.0 0.0 0.00 0.00 0.00 34 1013.0
20260510023002 72 47 0.0 0.0 0.00 0.00 0.00 37 1013.1
20260510022503 73 47 0.0 0.0 0.00 0.00 0.00 35 1013.1
20260510022002 73 47 0.0 0.0 0.00 0.00 0.00 36 1013.1
20260510021501 73 47 0.0 0.0 0.00 0.00 0.00 41 1013.1
20260510021001 74 47 0.0 0.0 0.00 0.00 0.00 37 1013.2
20260510020602 75 46 0.0 0.0 0.00 0.00 0.00 37 1013.3
20260510020100 75 47 0.0 0.0 0.00 0.00 0.00 35 1013.2
20260510015559 76 47 0.0 0.0 0.00 0.00 0.00 32 1013.3
20260510015102 76 47 0.0 0.0 0.00 0.00 0.00 31 1013.3
20260510014618 77 46 0.0 0.0 0.00 0.00 0.00 32 1013.5
20260510014058 77 46 0.0 0.0 0.00 0.00 0.00 33 1013.4
20260510013600 77 46 0.0 0.0 0.00 0.00 0.00 31 1013.4
20260510013057 78 46 0.0 0.0 0.00 0.00 0.00 30 1013.5
20260510012556 79 46 0.0 0.0 0.00 0.00 0.00 33 1013.5
20260510012056 80 46 0.0 0.0 0.00 0.00 0.00 31 1013.6
20260510011556 81 46 0.0 0.0 0.00 0.00 0.00 30 1013.6
20260510011055 81 46 0.0 0.0 0.00 0.00 0.00 29 1013.7
20260510010555 81 46 0.0 0.0 0.00 0.00 0.00 31 1013.7
20260510010055 82 46 0.0 0.0 0.00 0.00 0.00 30 1013.7
20260510005554 82 46 0.0 0.0 0.00 0.00 0.00 25 1013.9
20260510005056 82 46 0.0 0.0 0.00 0.00 0.00 27 1014.0
20260510004553 82 39 0.0 0.0 0.00 0.00 0.00 25 1013.8
20260510004057 82 39 0.0 0.0 0.00 0.00 0.00 28 1013.8
20260510003554 82 39 0.0 0.0 0.00 0.00 0.00 29 1013.9
20260510003057 82 38 0.0 0.0 0.00 0.00 0.00 29 1014.0
20260510002554 82 38 0.0 0.0 0.00 0.00 0.00 29 1014.0
20260510002053 82 38 0.0 0.0 0.00 0.00 0.00 29 1013.9
20260510001554 82 40 0.0 0.0 0.00 0.00 0.00 28 1013.8
20260510001052 82 37 0.0 0.0 0.00 0.00 0.00 28 1013.9
20260510000552 83 36 0.0 0.0 0.00 0.00 0.00 26 1014.1
20260510000052 83 38 0.0 0.0 0.00 0.00 0.00 26 1014.2
20260509235550 84 37 0.0 0.0 0.00 0.00 0.00 25 1014.4
20260509235049 84 38 0.0 0.0 0.00 0.00 0.00 23 1014.4
20260509234548 84 20 0.0 0.0 0.00 0.00 0.00 25 1014.5
20260509234047 84 20 0.0 0.0 0.00 0.00 0.00 26 1014.8
20260509233551 84 360 0.0 0.0 0.00 0.00 0.00 24 1014.7
20260509233051 84 5 0.0 0.0 0.00 0.00 0.00 24 1014.7
20260509232546 84 360 0.0 0.0 0.00 0.00 0.00 25 1014.9
20260509232045 84 360 0.0 0.0 0.00 0.00 0.00 25 1014.9
20260509231546 84 15 0.0 0.0 0.00 0.00 0.00 22 1015.0
20260509231046 84 11 0.0 0.0 0.00 0.00 0.00 26 1015.1
20260509230548 84 17 0.0 0.0 0.00 0.00 0.00 23 1015.2
20260509230044 84 42 0.0 0.0 0.00 0.00 0.00 22 1015.3
20260509225542 84 146 0.0 0.0 0.00 0.00 0.00 25 1015.5
20260509225047 84 348 0.0 0.0 0.00 0.00 0.00 26 1015.4
20260509224553 84 43 0.0 0.0 0.00 0.00 0.00 24 1015.6
20260509224042 84 342 0.0 0.0 0.00 0.00 0.00 27 1015.6
20260509223540 84 360 0.0 0.0 0.00 0.00 0.00 24 1015.6
20260509223039 83 25 0.0 0.0 0.00 0.00 0.00 25 1015.6
20260509222538 83 335 0.0 0.0 0.00 0.00 0.00 26 1015.9
20260509222038 83 322 0.0 0.0 0.00 0.00 0.00 27 1016.0
20260509221543 83 5 0.0 0.0 0.00 0.00 0.00 30 1016.0
20260509221036 83 345 0.0 0.0 0.00 0.00 0.00 29 1016.0
20260509220534 82 40 0.0 0.0 0.00 0.00 0.00 31 1016.1
20260509220034 81 49 0.0 0.0 0.00 0.00 0.00 27 1016.3
20260509215533 81 32 0.0 0.0 0.00 0.00 0.00 25 1016.2
20260509215034 81 24 0.0 0.0 0.00 0.00 0.00 27 1016.4
20260509214532 81 20 0.0 0.0 0.00 0.00 0.00 26 1016.5
20260509214033 81 355 0.0 0.0 0.00 0.00 0.00 30 1016.5
20260509213531 81 5 0.0 0.0 0.00 0.00 0.00 30 1016.5
20260509213029 81 26 0.0 0.0 0.00 0.00 0.00 31 1016.6
20260509212527 80 34 0.0 0.0 0.00 0.00 0.00 32 1016.7
20260509212027 80 5 0.0 0.0 0.00 0.00 0.00 34 1016.9
20260509211526 80 25 0.0 0.0 0.00 0.00 0.00 35 1017.0
20260509211026 79 65 0.0 0.0 0.00 0.00 0.00 34 1017.0
20260509210526 79 11 0.0 0.0 0.00 0.00 0.00 37 1017.1
20260509210030 78 48 0.0 0.0 0.00 0.00 0.00 38 1017.2
20260509205522 78 53 0.0 0.0 0.00 0.00 0.00 37 1017.3
20260509205020 78 38 0.0 0.0 0.00 0.00 0.00 39 1017.3
20260509204518 77 21 0.0 0.0 0.00 0.00 0.00 39 1017.2
20260509204018 77 13 0.0 0.0 0.00 0.00 0.00 38 1017.2
20260509203517 76 5 0.0 0.0 0.00 0.00 0.00 40 1017.4
20260509203017 76 34 0.0 0.0 0.00 0.00 0.00 40 1017.4
20260509202514 76 77 0.0 0.0 0.00 0.00 0.00 44 1017.5
20260509202016 75 33 0.0 0.0 0.00 0.00 0.00 42 1017.6
20260509201512 75 71 0.0 0.0 0.00 0.00 0.00 42 1017.7
20260509201013 74 9 0.0 0.0 0.00 0.00 0.00 41 1017.7
20260509200510 74 322 0.0 0.0 0.00 0.00 0.00 44 1017.9
20260509200009 74 9 0.0 0.0 0.00 0.00 0.00 45 1018.2
20260509195511 74 69 0.0 0.0 0.00 0.00 0.00 45 1018.2
20260509195010 73 11 0.0 0.0 0.00 0.00 0.00 46 1018.3
20260509194505 73 25 0.0 0.0 0.00 0.00 0.00 45 1018.4
20260509194004 73 19 0.0 0.0 0.00 0.00 0.00 49 1018.5
20260509193504 72 57 0.0 0.0 0.00 0.00 0.00 50 1018.5
20260509193003 71 15 0.0 0.0 0.00 0.00 0.00 50 1018.6
20260509192603 71 360 0.0 0.0 0.00 0.00 0.00 51 1018.7
20260509192059 71 53 0.0 0.0 0.00 0.00 0.00 50 1018.7
20260509191603 70 355 0.0 0.0 0.00 0.00 0.00 52 1018.8
20260509191057 70 355 0.0 0.0 0.00 0.00 0.00 53 1018.9
20260509190554 69 78 0.0 0.0 0.00 0.00 0.00 55 1018.9
20260509190107 69 39 0.0 0.0 0.00 0.00 0.00 55 1019.0
20260509185552 68 38 0.0 0.0 0.00 0.00 0.00 56 1019.1
20260509185051 68 37 0.0 0.0 0.00 0.00 0.00 58 1019.1
20260509184551 67 13 0.0 0.0 0.00 0.00 0.00 54 1019.2
20260509184049 67 329 0.0 0.0 0.00 0.00 0.00 55 1019.3
20260509183548 67 351 0.0 0.0 0.00 0.00 0.00 56 1019.4